Volver al catálogo

COSMOS 1562

ActivoMilitarLEO
NORAD 15001·PAYLOAD·🇷🇺 Russia

Lanzado May 28, 1984 desde Plesetsk Cosmodrome

Loading…

Próximos Pases (próximas 24 horas)

TLE

ActualizadoSource: Space-Track

Época: Sep 14, 2026, 19:31 UTC

1 15001U 84052D   26257.81335921 -.00000006  00000-0  65990-4 0  9990
2 15001  74.0128 196.9718 0015323 345.5279  41.5839 12.49966711929984

Sigue COSMOS 1562 en tiempo real con AllMySat

Download on the App Store